Location: Ahstedt
(52.2048°N, 10.1060°E)
Time: 22:16:24
(UTC+00:00)

Cosmos 2297 Rocket - Pass Details

Date: 18 January 2026
Orbit: 837 x 844 km, 71.0° (Epoch: 7 February)

Event Time Altitude Azimuth Distance (km) Brightness Sun altitude
Exits shadow 04:31:46 10° 349° (NNW) 2,461 4.5 -24.9°
Maximum altitude 04:33:35 12° 8° (N) 2,356 4.6 -24.6°
Drops below altitude 10° 04:35:33 10° 28° (NNE) 2,475 4.9 -24.3°
Sets 04:39:58 0° 60° (ENE) 3,409 6.2 -23.7°
